Wind_Speed
4 5 7 7 9 11 13 13 15 10 3 10 12 11 9 10 14 13 10 8 8 10 10 12 12 14 14 14 15 18 18 17 17 17 16 18 19 17 15 14 14 12 12 13
6 8 3 11 14 17 16 17 8 9 8 8 10 9 6 7 7 8 9 7 7 8 7 10 13 13 12 13 14 18 20 21 21 22 24 24 21 16 16 13 11 14 15 15
9 4 4 11 10 11 4 5 10 8 12 12 13 4 6 4 6 7 6 6 6 6 6 8 9 10 11 13 15 19 20 20 20 22 25 25 21 19 14 17 16 16 16 15
8 3 4 5 4 1 3 0 15 19 8 4 9 2 8 8 7 5 4 5 6 5 5 5 6 7 11 13 15 19 22 22 23 26 25 22 20 18 19 20 19 18 19 16
4 2 4 7 4 1 5 10 14 14 3 7 9 4 3 7 10 10 8 6 4 5 4 2 4 7 10 13 15 17 18 18 21 22 21 20 21 21 21 20 21 21 18 15
5 2 4 4 5 7 15 7 4 6 2 4 4 4 7 7 12 8 8 5 5 5 5 4 6 9 10 12 15 15 16 18 18 20 20 21 21 21 22 23 22 19 16 14
4 5 3 6 2 5 6 1 5 5 4 4 1 6 4 10 1 2 8 5 4 5 4 3 10 13 11 13 12 14 15 16 19 22 20 21 22 21 23 23 23 22 16 14
2 2 6 9 4 3 5 3 4 6 5 5 2 3 5 10 11 11 7 6 4 4 5 6 8 10 10 11 13 13 15 18 22 18 19 21 18 20 21 22 23 21 18 16
3 4 2 7 8 4 2 4 3 2 1 3 2 0 9 7 7 6 6 6 4 8 6 8 9 8 8 11 11 14 17 20 19 19 20 18 19 18 19 19 19 17 15 15
2 4 3 3 3 11 6 2 2 2 5 9 1 2 5 11 1 4 4 6 8 6 7 7 7 5 7 12 14 17 18 19 19 20 19 19 18 16 16 15 16 15 13 12
2 2 3 1 6 7 6 4 4 1 3 3 4 4 4 7 3 3 4 5 4 3 2 2 4 10 11 13 15 16 18 19 20 18 17 17 16 15 16 16 15 14 13 12
4 2 3 3 1 6 8 5 3 3 2 2 2 3 4 4 5 4 4 5 2 4 4 6 8 11 12 13 14 14 17 18 16 17 16 19 20 23 20 16 15 14 10 8
2 3 2 3 5 3 6 7 3 1 1 4 4 3 4 3 3 6 6 8 7 6 6 8 11 12 13 13 15 17 17 16 16 16 18 19 20 21 17 14 13 11 3 5
4 3 3 3 3 2 3 9 7 3 4 2 4 3 3 2 4 5 6 7 7 7 8 10 12 13 13 15 17 18 17 16 16 16 18 16 19 20 18 15 13 11 10 5
3 3 4 6 6 7 5 6 10 10 5 4 3 4 3 5 4 6 6 6 6 7 10 12 14 15 15 18 17 16 15 14 15 18 14 13 18 22 17 14 16 15 8 4
3 4 3 3 5 5 6 4 4 5 3 1 2 3 4 6 8 7 6 5 6 8 10 12 13 14 14 16 17 16 15 15 17 13 11 16 20 19 18 14 13 13 14 9
2 5 2 2 4 4 2 4 3 2 2 3 6 3 8 5 5 6 5 5 7 9 10 11 12 12 16 16 14 14 14 14 13 11 14 18 21 19 19 19 17 16 15 14
4 3 2 2 2 1 2 2 5 5 4 2 0 2 3 4 5 5 4 5 7 8 9 10 11 13 13 14 13 12 13 13 12 11 15 18 21 22 18 17 16 15 15 16
4 4 3 1 0 2 2 1 3 4 6 4 1 4 6 8 6 4 4 5 7 8 10 10 12 12 12 13 13 11 12 11 11 15 17 19 20 21 18 20 19 18 17 18
7 7 2 1 1 1 1 1 5 3 1 4 2 3 7 7 4 5 3 4 7 9 8 10 12 11 12 12 11 11 12 13 16 17 17 17 18 19 16 16 18 19 18 17
2 3 4 1 1 1 1 5 1 4 4 2 2 2 7 1 3 6 4 5 7 7 8 11 12 13 12 12 11 13 13 14 14 13 15 14 16 16 17 16 21 26 27 27
1 1 1 1 1 1 3 1 3 3 3 3 3 4 5 6 7 6 3 4 5 7 9 10 9 11 10 9 11 13 13 14 14 13 11 13 16 17 16 18 23 21 21 24
1 1 2 2 2 2 3 3 8 6 6 4 5 6 8 8 6 4 3 4 4 6 8 9 9 9 7 6 11 14 14 13 12 12 14 18 20 22 23 23 20 20 22 21
1 1 0 1 1 1 2 8 6 6 7 6 7 7 5 6 4 2 2 3 4 4 6 7 7 8 5 7 11 14 12 13 14 18 22 26 25 23 23 21 19 21 25 22
2 3 1 1 2 2 5 6 7 7 7 8 7 4 5 4 3 2 3 4 3 3 6 6 7 7 8 10 12 11 13 18 23 25 23 22 23 21 18 18 18 19 21 23
2 1 0 2 3 2 1 11 8 7 8 8 5 6 7 4 3 4 5 5 4 7 6 7 6 4 8 12 13 14 19 19 19 21 20 20 19 21 18 17 16 19 17 19
Wind_Direction
32 121 87 79 85 104 103 108 114 111 92 78 112 120 128 117 110 103 101 90 72 59 48 48 41 36 30 22 13 20 14 19 13 9 3 1 354 348 346 345 342 348 346 340
110 78 30 103 108 108 116 118 111 96 89 110 129 111 125 129 113 121 124 110 92 76 56 44 37 31 22 16 21 16 10 4 2 3 360 353 350 344 338 342 344 339 341 337
83 82 125 111 122 119 156 137 170 138 112 126 137 138 172 132 125 105 93 109 91 80 62 39 24 28 27 19 12 9 3 359 357 352 346 345 348 350 353 345 342 341 338 342
75 67 83 99 99 259 111 20 149 148 165 174 209 193 220 194 195 165 174 157 134 97 60 35 30 22 8 5 3 358 352 348 344 340 343 351 353 350 344 339 334 328 325 329
103 72 62 58 14 221 57 142 151 160 145 154 199 253 141 199 225 213 196 182 128 100 81 57 22 353 349 352 347 340 336 332 332 340 345 347 344 339 337 336 334 332 322 317
86 37 32 354 58 67 134 120 99 195 203 259 170 249 188 194 236 215 186 137 124 103 101 36 360 349 344 339 334 329 327 331 344 340 336 335 335 333 333 332 336 341 341 338
71 30 4 20 38 111 189 149 310 278 272 337 162 216 24 195 16 185 159 136 142 140 161 298 352 343 327 325 324 328 333 337 336 336 337 334 330 329 330 334 334 332 334 336
166 175 15 348 21 341 41 350 334 314 316 336 182 283 55 79 87 84 117 150 166 181 219 262 321 327 314 323 325 331 330 331 332 334 337 335 333 328 331 331 330 327 321 326
145 130 147 36 38 317 59 24 359 298 106 263 14 245 95 77 78 100 115 126 193 225 231 256 287 304 325 325 326 328 328 329 331 328 333 332 329 327 330 331 335 336 326 321
81 133 26 29 358 44 47 64 300 357 298 309 182 343 13 357 212 158 155 202 219 240 270 281 295 327 333 331 326 329 334 336 335 332 333 333 333 331 330 332 338 341 337 328
39 13 76 75 34 19 32 36 38 48 329 311 315 71 6 351 34 167 201 214 230 261 286 343 10 343 343 336 342 344 344 340 338 337 337 334 327 325 323 319 318 324 334 338
25 71 69 96 48 56 61 34 17 327 53 54 318 87 2 22 68 105 96 92 95 66 53 39 0 348 343 343 345 344 342 342 346 344 343 338 338 338 329 328 324 314 314 335
151 36 340 147 200 72 43 17 32 85 233 42 344 56 44 104 104 52 97 92 86 72 51 12 354 345 340 341 342 343 344 346 345 345 342 349 351 348 343 338 340 358 19 334
92 66 35 10 11 351 48 27 29 29 38 55 42 351 70 59 14 80 94 92 83 59 27 2 355 355 354 349 347 347 347 348 348 348 1 10 16 15 15 17 10 359 341 33
68 95 92 75 81 90 82 50 46 59 49 33 14 341 42 21 51 104 99 87 66 33 11 8 4 358 356 354 355 355 356 354 6 6 22 13 10 8 12 24 25 24 28 29
32 114 114 88 93 87 74 44 49 56 54 104 285 315 85 107 109 108 106 83 33 21 12 7 5 5 5 8 12 12 16 7 13 39 17 17 7 19 25 17 41 41 48 52
54 139 174 108 150 314 235 10 5 319 263 315 328 27 159 149 135 132 107 56 34 13 10 10 12 7 5 5 9 14 22 24 31 30 15 19 20 31 31 39 42 46 43 39
122 102 53 96 195 256 80 304 303 290 291 236 305 101 168 145 116 108 82 46 27 17 15 19 9 8 13 21 19 30 28 37 34 25 14 26 31 35 40 43 46 41 43 52
73 120 98 269 201 339 183 157 327 308 345 9 352 122 128 135 134 104 71 49 24 18 21 15 9 13 21 31 32 40 54 55 30 22 34 41 46 47 48 47 50 47 53 57
74 69 81 143 337 40 68 10 335 191 125 34 8 164 167 169 289 75 101 44 30 25 30 25 16 17 24 36 58 48 49 45 37 32 35 37 39 41 40 44 43 49 53 59
53 32 53 83 1 203 304 323 275 338 6 46 35 131 161 173 53 123 99 40 36 37 38 20 25 40 51 77 56 51 37 29 22 16 22 39 46 44 44 51 65 71 66 65
65 94 66 143 301 359 7 212 336 85 119 112 88 104 139 128 125 120 84 64 43 49 28 22 43 53 78 57 45 33 21 16 13 17 32 52 47 52 59 75 86 76 69 67
137 357 356 241 18 8 353 71 118 101 110 104 112 115 127 123 123 111 73 63 29 38 24 27 51 57 67 35 30 17 13 12 26 53 68 71 70 75 80 86 72 64 56 57
90 146 32 253 126 229 118 138 125 109 99 105 116 117 111 113 115 85 66 43 15 35 43 37 52 52 53 36 17 10 28 53 74 81 87 90 77 74 78 75 71 68 61 57
35 171 107 291 230 220 191 179 154 126 111 118 123 115 120 118 94 77 58 46 53 52 59 52 63 70 66 40 38 50 71 87 86 86 93 77 78 74 77 69 63 56 56 46
185 155 265 43 342 3 50 181 165 135 130 125 101 126 127 98 87 81 61 39 74 98 68 67 74 83 65 51 64 84 99 94 89 86 84 80 83 73 69 71 57 60 53 43
Height
1526 1525 1531 1532 1530 1534 1542 1551 1564 1570 1571 1570 1576 1579 1580 1582 1582 1584 1585 1585 1584 1583 1583 1583 1582 1582 1583 1583 1582 1580 1578 1577 1576 1574 1571 1568 1566 1563 1562 1560 1558 1555 1553 1550
1528 1537 1537 1536 1536 1539 1545 1554 1567 1572 1572 1574 1580 1583 1582 1583 1585 1585 1586 1586 1585 1584 1584 1584 1583 1583 1584 1584 1582 1581 1579 1577 1574 1572 1570 1567 1564 1562 1560 1558 1556 1554 1550 1548
1529 1540 1540 1538 1543 1541 1548 1548 1564 1564 1573 1574 1575 1583 1581 1585 1587 1587 1587 1587 1586 1585 1585 1584 1585 1585 1585 1585 1584 1582 1580 1578 1575 1573 1569 1566 1562 1560 1558 1555 1553 1550 1548 1545
1536 1539 1538 1538 1541 1542 1545 1546 1553 1562 1562 1570 1571 1571 1579 1578 1583 1585 1586 1585 1585 1585 1585 1586 1587 1587 1587 1586 1584 1583 1581 1578 1575 1571 1568 1564 1560 1558 1556 1553 1550 1548 1545 1543
1543 1540 1541 1541 1544 1540 1549 1550 1552 1557 1560 1563 1577 1572 1572 1575 1578 1579 1583 1585 1586 1586 1587 1588 1588 1587 1587 1586 1585 1584 1581 1578 1574 1570 1567 1563 1561 1558 1554 1552 1548 1545 1542 1539
1540 1542 1542 1542 1544 1543 1549 1554 1558 1561 1559 1560 1569 1569 1565 1576 1571 1574 1583 1585 1587 1587 1589 1591 1589 1588 1587 1587 1585 1582 1579 1576 1573 1570 1567 1563 1559 1556 1553 1550 1546 1542 1539 1537
1544 1547 1546 1545 1543 1546 1547 1548 1553 1558 1556 1562 1568 1569 1560 1566 1573 1575 1581 1585 1588 1588 1589 1591 1590 1588 1587 1585 1583 1580 1577 1575 1571 1568 1565 1561 1558 1554 1551 1547 1543 1540 1538 1535
1553 1560 1551 1550 1550 1551 1551 1551 1557 1572 1566 1560 1567 1560 1571 1576 1580 1580 1583 1587 1589 1589 1589 1590 1588 1587 1585 1584 1581 1579 1576 1573 1569 1566 1563 1559 1556 1553 1549 1546 1542 1538 1535 1534
1554 1562 1555 1554 1553 1553 1553 1556 1559 1563 1570 1565 1566 1565 1575 1582 1584 1584 1587 1588 1590 1591 1588 1587 1587 1586 1585 1583 1580 1578 1574 1571 1568 1564 1561 1558 1554 1551 1548 1544 1541 1537 1534 1532
1553 1561 1557 1556 1555 1555 1554 1560 1561 1558 1570 1571 1567 1569 1581 1582 1583 1585 1588 1588 1589 1589 1588 1588 1587 1585 1583 1582 1580 1576 1573 1569 1566 1563 1559 1556 1553 1549 1546 1543 1540 1536 1533 1531
1551 1551 1563 1558 1565 1565 1560 1561 1565 1568 1570 1570 1571 1581 1589 1587 1583 1585 1588 1588 1589 1589 1588 1588 1587 1588 1584 1581 1578 1575 1572 1568 1565 1561 1558 1555 1551 1547 1544 1540 1537 1535 1532 1530
1558 1559 1566 1569 1568 1568 1567 1571 1571 1568 1574 1580 1578 1586 1589 1588 1587 1587 1588 1589 1589 1590 1590 1589 1589 1586 1584 1581 1577 1574 1570 1567 1564 1560 1557 1553 1548 1545 1540 1536 1533 1531 1530 1528
1558 1568 1568 1568 1570 1568 1571 1572 1575 1576 1576 1582 1577 1585 1588 1588 1587 1588 1590 1591 1591 1591 1590 1590 1588 1586 1583 1579 1576 1572 1569 1566 1562 1559 1555 1552 1547 1541 1537 1533 1531 1527 1526 1527
1558 1570 1570 1575 1577 1577 1577 1577 1575 1573 1575 1582 1585 1584 1585 1587 1588 1591 1592 1592 1592 1592 1592 1590 1588 1585 1581 1577 1574 1571 1568 1564 1561 1558 1555 1551 1546 1542 1537 1533 1530 1527 1526 1525
1562 1572 1575 1577 1577 1577 1581 1581 1579 1579 1583 1583 1583 1583 1585 1590 1591 1592 1594 1594 1594 1593 1592 1589 1587 1584 1581 1577 1574 1570 1567 1564 1560 1557 1555 1551 1548 1543 1537 1535 1531 1528 1526 1526
1568 1576 1576 1581 1579 1580 1582 1581 1581 1582 1583 1583 1584 1583 1590 1592 1593 1593 1594 1595 1594 1593 1592 1589 1587 1584 1580 1577 1573 1570 1567 1564 1561 1559 1555 1553 1548 1543 1539 1536 1533 1531 1529 1527
1569 1574 1577 1581 1582 1581 1585 1583 1583 1583 1583 1584 1583 1585 1589 1592 1593 1593 1594 1595 1594 1593 1591 1589 1586 1583 1580 1577 1574 1571 1568 1566 1564 1561 1557 1555 1549 1546 1541 1539 1537 1535 1532 1531
1571 1575 1579 1583 1584 1590 1583 1583 1582 1582 1582 1584 1585 1587 1589 1591 1593 1594 1594 1595 1594 1593 1591 1588 1586 1583 1580 1578 1575 1573 1571 1568 1565 1562 1560 1556 1553 1549 1545 1543 1540 1537 1535 1533
1569 1573 1583 1584 1586 1585 1582 1582 1583 1582 1581 1586 1586 1589 1590 1592 1593 1595 1594 1594 1594 1592 1590 1588 1586 1583 1581 1579 1577 1575 1572 1570 1568 1564 1561 1559 1556 1554 1550 1547 1544 1541 1539 1537
1572 1573 1574 1585 1585 1589 1581 1582 1582 1581 1583 1587 1587 1588 1590 1592 1586 1592 1594 1594 1593 1592 1590 1588 1586 1584 1582 1580 1578 1576 1574 1572 1569 1567 1564 1561 1559 1557 1554 1551 1548 1546 1543 1541
1574 1577 1581 1587 1584 1582 1581 1582 1581 1584 1590 1588 1588 1588 1590 1590 1592 1594 1594 1594 1593 1592 1590 1588 1586 1585 1583 1582 1580 1578 1576 1574 1571 1569 1566 1564 1561 1559 1557 1554 1553 1551 1549 1546
1574 1578 1582 1585 1584 1586 1583 1582 1581 1586 1587 1588 1589 1589 1590 1591 1592 1594 1594 1594 1593 1591 1591 1589 1587 1586 1585 1583 1582 1580 1578 1575 1573 1570 1567 1565 1563 1561 1560 1559 1558 1557 1555 1553
1577 1578 1578 1581 1580 1583 1583 1583 1584 1585 1586 1588 1589 1589 1590 1592 1593 1594 1594 1593 1592 1592 1591 1589 1588 1587 1586 1585 1584 1581 1579 1576 1574 1571 1569 1568 1566 1565 1564 1564 1564 1562 1560 1558
1580 1581 1578 1581 1584 1583 1583 1584 1584 1586 1587 1588 1589 1590 1592 1593 1593 1594 1593 1593 1592 1592 1591 1590 1589 1588 1587 1586 1585 1582 1580 1578 1576 1574 1573 1573 1572 1571 1571 1571 1569 1567 1565 1563
1580 1581 1582 1581 1582 1583 1583 1584 1585 1586 1587 1589 1590 1591 1593 1593 1594 1594 1593 1592 1592 1592 1591 1591 1590 1589 1589 1588 1586 1584 1583 1582 1581 1580 1580 1579 1579 1578 1577 1576 1574 1572 1570 1568
1581 1581 1580 1579 1580 1581 1582 1583 1585 1587 1588 1590 1591 1592 1593 1594 1594 1594 1593 1592 1592 1592 1592 1592 1591 1591 1591 1590 1588 1587 1587 1587 1586 1586 1586 1585 1584 1582 1581 1580 1578 1577 1574 1572